Regional Weather Roundup
Issued by NWS Midland/Odessa, TX

Skip options and go directly to product.
Home | Oldest Version | Previous Version | Current Version | All | Graphics & Text | Save Text | Print | Product List | Glossary On

Skip product version selection by date and time.   
410
ASUS44 KMAF 020010
RWRMAF
MIDLAND AREA WEATHER ROUNDUP
NATIONAL WEATHER SERVICE MIDLAND TX
700 PM CDT WED APR 01 2015

...IN SOUTHWEST TEXAS AND SOUTHEAST NEW MEXICO...

CITY           SKY/WX    TMP DP  RH WIND       PRES   REMARKS
ALPINE         SUNNY     78  30  17 W16       30.00R
ANDREWS        FAIR      83  36  18 SW15      29.80S
ARTESIA        MOSUNNY   82  30  15 SW20      29.79R
BIG SPRING     SUNNY     84  37  18 SW12      29.80S
CARLSBAD       MOSUNNY   84  28  13 W18G29    29.79R
DRYDEN           N/A     86  46  24 SE13      29.80S
FORT STOCKTON  MOSUNNY   83  40  21 S7        29.83S
GUAD PASS      SUNNY     74  31  20 SW33G39   29.94S
HOBBS          MOSUNNY   81  30  16 SW12G21   29.82R
MARFA          SUNNY     75  34  22 W9G22     29.99R
MIDLAND AIRPK  SUNNY     85  38  18 SW12G23   29.80S
MIDLAND INTL   MOSUNNY   84  41  21 SW12      29.79F
ODESSA         MOSUNNY   83  37  19 SW10G20   29.80F
PECOS          SUNNY     85  38  18 W9        29.79R
PRESIDIO       FAIR      84  41  21 S5        29.85S
SEMINOLE       MOSUNNY   83  32  15 SW13      29.80S
SNYDER         SUNNY     84  42  22 SW12      29.76S
WINK           SUNNY     85  32  15 SW9       29.78R
$$
...OTHER STATIONS IN TEXAS...

CITY           SKY/WX    TMP DP  RH WIND       PRES   REMARKS
ABILENE        MOSUNNY   82  54  37 S15       29.77R
AMARILLO       MOSUNNY   84  24  11 SW20G26   29.70R
AUSTIN         PTCLDY    78  63  59 S12       29.86R
BROWNSVILLE    CLEAR     77  68  73 SE18G25   29.87S
CORPUS CHRISTI MOCLDY    75  68  78 SE22      29.87R
DALLAS FTW     MOCLDY    76  63  64 S15G23    29.80F
DEL RIO        SUNNY     81  62  52 SE13G21   29.81R
EL PASO        MOSUNNY   82  32  16 W23G30    29.87S
HOUSTON INT    CLOUDY    75  66  73 S13       29.91R
LUBBOCK        PTSUNNY   83  29  14 W10       29.73S
SAN ANGELO     SUNNY     82  52  35 S15       29.80R
SAN ANTONIO    PTSUNNY   79  63  57 SE15      29.86R
WACO           CLOUDY    74  62  66 S15       29.84R
WICHITA FALLS  NOT AVBL
$$
...OTHER LOCATIONS IN NEW MEXICO...

CITY           SKY/WX    TMP DP  RH WIND       PRES   REMARKS
ALAMAGORDO     MOSUNNY   81  21  11 W20G25    29.86S
ALBUQUERQUE    MOSUNNY   74  22  14 W21G26    29.86F
CANNON AFB     NOT AVBL
CLOVIS         MOSUNNY   79  28  15 W26G32    29.77S
HOLLOMAN AFB   MOSUNNY   81  25  12 W20       29.84R
ROSWELL        SUNNY     84  23  10 W21       29.77S
RUIDOSO        SUNNY     66  25  20 SW16G24   29.99S
SANTA FE       PTSUNNY   67  16  14 W20       29.90R
TRUTH OR CONSE SUNNY     78  24  13 W23G32    29.86S
TUCUMCARI      MOSUNNY   81  19  10 W26G32    29.71S
$$

USA.gov is the U.S. government's official web portal to all federal, state and local government web resources and services.